DW4207 Weather Reports


Display with metric or nautical units.
time (UTC)temp
F
wind
direction
speed
MPH
gust
MPH
rain 1hr
in
rain 24hr
in
rain mn
in
humidity
%
barometer
mb
20260902232004 89 215 2.0 6.0 0.00 0.00 0.00 65 1015.2
20260902231024 90 209 3.0 5.0 0.00 0.00 0.00 63 1015.3
20260902230003 90 222 2.0 6.0 0.00 0.00 0.00 64 1015.3
20260902225003 90 220 2.0 6.0 0.00 0.00 0.00 64 1015.2
20260902224003 91 212 2.0 6.0 0.00 0.00 0.00 61 1015.2
20260902223003 91 224 3.0 8.0 0.00 0.00 0.00 60 1015.3
20260902222004 92 219 4.0 9.0 0.00 0.00 0.00 59 1015.3
20260902221003 92 212 3.0 9.0 0.00 0.00 0.00 58 1015.5
20260902220003 92 218 6.0 12.0 0.00 0.00 0.00 58 1015.4
20260902215004 92 232 4.0 10.0 0.00 0.00 0.00 58 1015.4
20260902214003 92 194 4.0 9.0 0.00 0.00 0.00 58 1015.4
20260902213003 92 211 5.0 14.0 0.00 0.00 0.00 57 1015.5
20260902212003 92 210 5.0 10.0 0.00 0.00 0.00 59 1015.5
20260902211003 92 231 4.0 11.0 0.00 0.00 0.00 57 1015.6
20260902210004 92 209 5.0 11.0 0.00 0.00 0.00 59 1015.7
20260902205004 92 227 5.0 10.0 0.00 0.00 0.00 58 1015.7
20260902204003 93 213 5.0 10.0 0.00 0.00 0.00 57 1015.7
20260902203003 93 217 4.0 10.0 0.00 0.00 0.00 58 1015.7
20260902202004 93 205 4.0 10.0 0.00 0.00 0.00 57 1015.9
20260902201003 93 181 4.0 10.0 0.00 0.00 0.00 59 1016.0
20260902200003 93 208 4.0 9.0 0.00 0.00 0.00 59 1016.1
20260902195003 93 235 4.0 9.0 0.00 0.00 0.00 59 1016.2
20260902194024 93 228 5.0 11.0 0.00 0.00 0.00 59 1016.3
20260902193003 93 219 4.0 12.0 0.00 0.00 0.00 59 1016.4
20260902192004 93 248 4.0 9.0 0.00 0.00 0.00 58 1016.4
20260902191004 93 234 4.0 9.0 0.00 0.00 0.00 60 1016.5
20260902190004 93 216 4.0 12.0 0.00 0.00 0.00 59 1016.5
20260902185003 92 223 5.0 12.0 0.00 0.00 0.00 56 1016.5
20260902184003 92 225 5.0 12.0 0.00 0.00 0.00 58 1016.5
20260902183003 93 224 5.0 10.0 0.00 0.00 0.00 59 1016.6
20260902182004 92 219 5.0 14.0 0.00 0.00 0.00 59 1016.7
20260902181003 92 213 4.0 10.0 0.00 0.00 0.00 61 1016.7
20260902180006 92 217 5.0 9.0 0.00 0.00 0.00 60 1016.9
20260902175024 92 206 5.0 11.0 0.00 0.00 0.00 60 1017.0
20260902174003 92 223 4.0 8.0 0.00 0.00 0.00 60 1017.0
20260902173003 91 220 4.0 10.0 0.00 0.00 0.00 60 1017.1
20260902172024 91 186 4.0 10.0 0.00 0.00 0.00 60 1017.2
20260902171003 91 223 5.0 12.0 0.00 0.00 0.00 61 1017.3
20260902170024 91 207 5.0 11.0 0.00 0.00 0.00 61 1017.3
20260902165003 91 218 5.0 11.0 0.00 0.00 0.00 62 1017.4
20260902164003 91 222 5.0 12.0 0.00 0.00 0.00 61 1017.4
20260902163003 90 215 6.0 12.0 0.00 0.00 0.00 63 1017.5
20260902162004 90 221 5.0 11.0 0.00 0.00 0.00 61 1017.6
20260902161024 90 205 5.0 11.0 0.00 0.00 0.00 63 1017.6
20260902160004 90 204 5.0 11.0 0.00 0.00 0.00 65 1017.6
20260902155003 89 200 5.0 12.0 0.00 0.00 0.00 64 1017.6
20260902154003 89 208 4.0 10.0 0.00 0.00 0.00 65 1017.6
20260902153004 89 205 4.0 9.0 0.00 0.00 0.00 67 1017.5
20260902152024 88 193 3.0 8.0 0.00 0.00 0.00 65 1017.6
20260902151003 88 216 4.0 11.0 0.00 0.00 0.00 66 1017.6
20260902150003 87 212 4.0 9.0 0.00 0.00 0.00 67 1017.6
20260902145003 88 207 3.0 9.0 0.00 0.00 0.00 70 1017.7
20260902144024 87 211 4.0 8.0 0.00 0.00 0.00 70 1017.8
20260902143004 86 216 4.0 9.0 0.00 0.00 0.00 70 1017.7
20260902142003 85 200 3.0 8.0 0.00 0.00 0.00 70 1017.8
20260902141003 85 220 4.0 8.0 0.00 0.00 0.00 72 1017.8
20260902140003 85 211 3.0 9.0 0.00 0.00 0.00 71 1017.9
20260902135003 84 218 3.0 9.0 0.00 0.00 0.00 72 1018.0
20260902134003 83 222 3.0 8.0 0.00 0.00 0.00 73 1018.2
20260902133003 83 224 2.0 6.0 0.00 0.00 0.00 74 1018.2
20260902132003 82 220 2.0 5.0 0.00 0.00 0.00 75 1018.2
20260902131003 82 227 2.0 6.0 0.00 0.00 0.00 75 1018.2
20260902130003 81 210 3.0 5.0 0.00 0.00 0.00 76 1018.1
20260902125003 80 204 2.0 4.0 0.00 0.00 0.00 77 1018.1
20260902124024 79 202 2.0 5.0 0.00 0.00 0.00 78 1018.1
20260902123003 78 205 2.0 5.0 0.00 0.00 0.00 79 1018.2
20260902122003 78 196 1.0 4.0 0.00 0.00 0.00 80 1018.2
20260902121024 77 201 1.0 4.0 0.00 0.00 0.00 80 1018.3
20260902120024 77 202 1.0 3.0 0.00 0.00 0.00 81 1018.2
20260902115004 76 202 0.0 2.0 0.00 0.00 0.00 81 1018.2
20260902114003 76 206 0.0 2.0 0.00 0.00 0.00 81 1018.0
20260902113003 76 202 1.0 4.0 0.00 0.00 0.00 81 1017.9
20260902112003 76 206 0.0 2.0 0.00 0.00 0.00 82 1017.9
20260902111003 76 198 0.0 2.0 0.00 0.00 0.00 82 1017.9
20260902110005 76 200 0.0 2.0 0.00 0.00 0.00 82 1017.8
20260902105024 75 0 0.0 0.0 0.00 0.00 0.00 82 1017.7
20260902104024 76 0 0.0 0.0 0.00 0.00 0.00 82 1017.6
20260902103003 76 0 0.0 0.0 0.00 0.00 0.00 82 1017.5
20260902102003 75 222 0.0 2.0 0.00 0.00 0.00 82 1017.4
20260902101003 75 0 0.0 0.0 0.00 0.00 0.00 82 1017.4
20260902100003 76 203 0.0 2.0 0.00 0.00 0.00 82 1017.4
20260902095003 76 203 0.0 2.0 0.00 0.00 0.00 81 1017.3
20260902094003 76 203 0.0 2.0 0.00 0.00 0.00 81 1017.3
20260902093003 76 193 0.0 3.0 0.00 0.00 0.00 80 1017.2
20260902092024 76 0 0.0 0.0 0.00 0.00 0.00 80 1017.2
20260902091003 76 0 0.0 2.0 0.00 0.00 0.00 80 1017.2
20260902090024 77 187 0.0 2.0 0.00 0.00 0.00 80 1017.1
20260902085003 77 174 0.0 2.0 0.00 0.00 0.00 80 1017.1
20260902084003 76 203 0.0 3.0 0.00 0.00 0.00 81 1017.0
20260902083003 76 193 0.0 2.0 0.00 0.00 0.00 82 1017.1
20260902082024 76 193 0.0 2.0 0.00 0.00 0.00 82 1017.0
20260902081003 77 188 0.0 2.0 0.00 0.00 0.00 80 1017.0
20260902080003 77 0 0.0 0.0 0.00 0.00 0.00 80 1016.8
20260902075024 77 162 1.0 2.0 0.00 0.00 0.00 80 1016.8
20260902074003 77 160 1.0 1.0 0.00 0.00 0.00 81 1016.8
20260902073024 77 176 1.0 2.0 0.00 0.00 0.00 81 1016.8
20260902072003 77 166 0.0 3.0 0.00 0.00 0.00 81 1016.8
20260902071003 77 0 0.0 0.0 0.00 0.00 0.00 82 1016.8
20260902070004 78 0 0.0 0.0 0.00 0.00 0.00 80 1016.9
20260902065003 78 158 0.0 2.0 0.00 0.00 0.00 80 1016.9
20260902064003 78 185 0.0 2.0 0.00 0.00 0.00 80 1016.9
20260902063003 78 178 0.0 1.0 0.00 0.00 0.00 80 1016.9
20260902062003 78 181 0.0 2.0 0.00 0.00 0.00 80 1016.9
20260902061024 77 171 0.0 2.0 0.00 0.00 0.00 82 1017.0
20260902060003 77 0 0.0 0.0 0.00 0.00 0.00 84 1017.0
20260902055003 76 0 0.0 0.0 0.00 0.00 0.00 85 1017.0
20260902054003 76 0 0.0 0.0 0.00 0.00 0.00 85 1017.1
20260902053003 77 0 0.0 0.0 0.00 0.00 0.00 85 1017.0
20260902052024 77 0 0.0 0.0 0.00 0.00 0.00 85 1016.9
20260902051003 78 0 0.0 0.0 0.00 0.00 0.00 84 1016.9
20260902050005 78 0 0.0 2.0 0.00 0.00 0.00 81 1016.9
20260902045003 79 171 0.0 2.0 0.00 0.00 0.00 80 1016.9
20260902044003 79 171 0.0 2.0 0.00 0.00 0.00 81 1016.9
20260902043003 78 170 0.0 2.0 0.00 0.00 0.00 82 1016.9
20260902042003 78 165 0.0 1.0 0.00 0.00 0.00 83 1016.9
20260902041003 78 165 0.0 2.0 0.00 0.00 0.00 85 1016.8
20260902040004 77 0 0.0 0.0 0.00 0.00 0.00 86 1016.9
20260902035003 77 0 0.0 0.0 0.00 0.00 0.00 86 1016.9
20260902034003 77 0 0.0 0.0 0.00 0.00 0.00 86 1016.9
20260902033003 78 0 0.0 0.0 0.00 0.00 0.00 87 1016.9
20260902032024 77 165 0.0 1.0 0.00 0.00 0.00 87 1016.9
20260902031003 77 0 0.0 0.0 0.00 0.00 0.00 87 1016.9
20260902030003 78 0 0.0 0.0 0.00 0.00 0.00 86 1016.9
20260902025003 78 0 0.0 0.0 0.00 0.00 0.00 86 1017.0
20260902024003 77 165 0.0 2.0 0.00 0.00 0.00 87 1016.9
20260902023024 77 0 0.0 0.0 0.00 0.00 0.00 87 1016.9
20260902022024 77 0 0.0 0.0 0.00 0.00 0.00 86 1016.9
20260902021003 78 0 0.0 0.0 0.00 0.00 0.00 86 1016.7
20260902020003 78 0 0.0 0.0 0.00 0.00 0.00 86 1016.6
20260902015024 79 0 0.0 0.0 0.00 0.00 0.00 85 1016.6
20260902014003 79 0 0.0 0.0 0.00 0.00 0.00 85 1016.5
20260902013003 79 0 0.0 0.0 0.00 0.00 0.00 85 1016.4
20260902012003 79 0 0.0 0.0 0.00 0.00 0.00 84 1016.3
20260902011003 80 0 0.0 0.0 0.00 0.00 0.00 83 1016.2
20260902010003 80 0 0.0 0.0 0.00 0.00 0.00 82 1016.1
20260902005003 82 0 0.0 0.0 0.00 0.00 0.00 81 1016.1
20260902004003 83 0 0.0 0.0 0.00 0.00 0.00 78 1016.1
20260902003003 84 165 0.0 2.0 0.00 0.00 0.00 75 1016.1
20260902002003 85 162 0.0 2.0 0.00 0.00 0.00 74 1016.1
20260902001003 85 210 0.0 2.0 0.00 0.00 0.00 73 1016.1
20260902000003 86 211 0.0 2.0 0.00 0.00 0.00 70 1016.2
20260901235003 87 219 0.0 2.0 0.00 0.00 0.00 69 1016.1
20260901234003 88 224 0.0 2.0 0.00 0.00 0.00 67 1016.2
20260901233024 88 222 1.0 4.0 0.00 0.00 0.00 66 1016.2